CZ-6A DEB, 61122

Orbit data source: Space-Track

CZ-6A DEB, 61122 is space debris in LEO originally from a launch on Tue, 06 Aug 2024 UTC launched from the Taiyaun Space Center, China (TSC). Debris objects in space refer to the collection of defunct objects orbiting the Earth. Examples of debris include non-operational satellites, rocket bodies, and fragments generated from explosions, collisions, or faulty payload assembly.

Loading next visibility...
Identifier
61122, 2024-140PQ
Orbit
LEO
Country
Flag of CNCN / PRC
Related business
Manufacturer
SAST
Mission
Spacecraft
Bus & Motor
Unknown
Mass
Unknown
Launch date (UTC)
2024-08-06 (2 years ago)
Launch vehicle
Unknown
Launch site
Taiyaun Space Center, China (TSC)
Object type
Payload
Rocket body
Debris
Shape & HBR
Unknown shape, 0.2 m
Radar Cross Section
Medium (>0.1 m² and <1 m²)

Expand to show TLE details & history
Last TLE update: 13 hours ago

TLE from 13 hours ago
0 CZ-6A DEB
1 61122U 24140PQ  26171.29934985  .00000959  00000-0  19579-3 0  9996
2 61122  89.0246 271.6267 0115467 252.6714 106.1839 14.55997508 96269
Epoch: 2026-06-20T07:11Z
TLE epoch observation values (Epoch: 2026-06-20T07:11:03.827Z)
Latitude
-0.00001°
Longitude
-104.65521°
Altitude
732.903 km
Speed
7.476 km/s
True Right ascension
18h 06m 30s
True Declination
0° 00' 00"
Sunlit
Object was in full shadow at epoch
Visualization orbit readout
Latitude
Unknown
Longitude
Unknown
Altitude
Unknown
Speed
Unknown
Apparent Right ascension
Unknown
Apparent Declination
Unknown
Sunlit
N/A
Visualization observer readout
Local Sidereal Time
07:24:38
Azimuth
Unknown
Elevation
Unknown
Doppler factor
Unknown
Orbital elements
Apogee altitude
784.79 km
Perigee altitude
621.262 km
Semi-major axis
7,081.163 km
Eccentricity
0.01155
Inclination
89.0246°
RAAN
271.6267°
Arg. of periapsis
252.6714°
True anomaly
107.44943°
Mean anomaly
106.1839°
Eccentric anomaly
106.81718°
Mean motion
3.64239 °/min
Orbital period
98.84 mins
BSTAR
0.00019579
Loading maneuver chart data...
Computing Atmospheric mass density...
Loading historical data...
Loading historical data...
Loading historical data...
Loading historical data...
Loading historical data...
Loading historical data...
Loading historical data...

Documentation

Showing up to 5 results
|